• In Österreich
  • Länderverzeichnis
  • Für 7 Tage
  • Wassertemperatur
  • Satellitenkarten
  • Wetterkarte
  • News
  • Widgets
  • user-avatar
    Anmelden

    Stündliche Wetter Quito

    Heute, 19 Juni, Dienstag

    Zeit Temperatur Niederschläge Wind Luftdruck Luftfeuchtigkeit
    00:00 +12°C° 0 mm 0 m/S 623 mmHg 37%
    01:00 +11°C° 0 mm 0 m/S 623 mmHg 38%
    02:00 +10°C° 0 mm 0 m/S 622 mmHg 40%
    03:00 +9°C° 0 mm 0 m/S 622 mmHg 42%
    04:00 +10°C° 0 mm 1 m/S 622 mmHg 43%
    05:00 +10°C° 0 mm 1 m/S 622 mmHg 45%
    06:00 +9°C° 0 mm 0 m/S 623 mmHg 46%
    07:00 +10°C° 0 mm 0 m/S 623 mmHg 48%
    08:00 +14°C° 0 mm 1 m/S 624 mmHg 42%
    09:00 +18°C° 0 mm 2 m/S 625 mmHg 37%
    10:00 +21°C° 0 mm 2 m/S 626 mmHg 32%
    11:00 +24°C° 0 mm 2 m/S 626 mmHg 28%
    12:00 +26°C° 0 mm 1 m/S 626 mmHg 25%
    13:00 +27°C° 0 mm 1 m/S 626 mmHg 21%
    14:00 +27°C° 0 mm 1 m/S 626 mmHg 21%
    15:00 +26°C° 0 mm 1 m/S 625 mmHg 22%
    16:00 +25°C° 0 mm 1 m/S 624 mmHg 22%
    17:00 +23°C° 0 mm 1 m/S 624 mmHg 26%
    18:00 +20°C° 0 mm 1 m/S 623 mmHg 31%
    19:00 +16°C° 0 mm 1 m/S 623 mmHg 35%
    20:00 +16°C° 0 mm 1 m/S 623 mmHg 35%
    21:00 +15°C° 0 mm 1 m/S 623 mmHg 36%
    22:00 +15°C° 0 mm 1 m/S 623 mmHg 36%
    23:00 +14°C° 0 mm 1 m/S 623 mmHg 37%

    Morgen, 20 Juni, Mittwoch

    Zeit Temperatur Niederschläge Wind Luftdruck Luftfeuchtigkeit
    00:00 +14°C° 0 mm 1 m/S 623 mmHg 37%
    01:00 +13°C° 0 mm 1 m/S 623 mmHg 37%
    02:00 +13°C° 0 mm 1 m/S 623 mmHg 39%
    03:00 +12°C° 0 mm 1 m/S 622 mmHg 41%
    04:00 +12°C° 0 mm 1 m/S 622 mmHg 42%
    05:00 +12°C° 0 mm 1 m/S 622 mmHg 44%
    06:00 +12°C° 0 mm 1 m/S 622 mmHg 46%
    07:00 +12°C° 0 mm 1 m/S 623 mmHg 47%
    08:00 +15°C° 0 mm 2 m/S 624 mmHg 42%
    09:00 +19°C° 0 mm 2 m/S 625 mmHg 36%
    10:00 +22°C° 0 mm 3 m/S 626 mmHg 31%
    11:00 +24°C° 0 mm 3 m/S 626 mmHg 28%
    12:00 +26°C° 0 mm 3 m/S 626 mmHg 26%
    13:00 +27°C° 0 mm 2 m/S 626 mmHg 24%
    14:00 +26°C° 0 mm 2 m/S 625 mmHg 23%
    15:00 +26°C° 0 mm 2 m/S 625 mmHg 23%
    16:00 +26°C° 0 mm 1 m/S 624 mmHg 23%
    17:00 +23°C° 0 mm 1 m/S 624 mmHg 28%
    18:00 +21°C° 0 mm 1 m/S 623 mmHg 32%
    19:00 +18°C° 0 mm 1 m/S 623 mmHg 37%
    20:00 +18°C° 0 mm 1 m/S 623 mmHg 37%
    21:00 +16°C° 0 mm 1 m/S 624 mmHg 38%
    22:00 +15°C° 0 mm 1 m/S 624 mmHg 39%
    23:00 +15°C° 0 mm 1 m/S 624 mmHg 41%

    übermorgen, 21 Juni, Donnerstag

    Zeit Temperatur Niederschläge Wind Luftdruck Luftfeuchtigkeit
    00:00 +14°C° 0 mm 1 m/S 624 mmHg 42%
    01:00 +14°C° 0 mm 1 m/S 624 mmHg 44%
    02:00 +13°C° 0 mm 1 m/S 623 mmHg 46%
    03:00 +13°C° 0 mm 1 m/S 623 mmHg 47%
    04:00 +12°C° 0 mm 1 m/S 623 mmHg 49%
    05:00 +12°C° 0 mm 1 m/S 623 mmHg 50%
    06:00 +12°C° 0 mm 1 m/S 624 mmHg 50%
    07:00 +12°C° 0 mm 1 m/S 624 mmHg 51%
    08:00 +16°C° 0 mm 2 m/S 625 mmHg 43%
    09:00 +19°C° 0 mm 2 m/S 626 mmHg 35%
    10:00 +24°C° 0 mm 3 m/S 627 mmHg 28%
    11:00 +25°C° 0 mm 3 m/S 627 mmHg 25%
    12:00 +26°C° 0 mm 2 m/S 627 mmHg 23%
    13:00 +27°C° 0 mm 2 m/S 627 mmHg 21%
    14:00 +27°C° 0 mm 2 m/S 626 mmHg 21%
    15:00 +27°C° 0 mm 2 m/S 626 mmHg 22%
    16:00 +26°C° 0 mm 1 m/S 625 mmHg 22%
    17:00 +24°C° 0 mm 1 m/S 625 mmHg 26%
    18:00 +21°C° 0 mm 1 m/S 624 mmHg 30%
    19:00 +19°C° 0 mm 1 m/S 624 mmHg 34%
    20:00 +18°C° 0 mm 1 m/S 624 mmHg 34%
    21:00 +18°C° 0 mm 1 m/S 625 mmHg 35%
    22:00 +16°C° 0 mm 1 m/S 625 mmHg 35%
    23:00 +16°C° 0 mm 1 m/S 625 mmHg 36%

    22 Juni, Freitag

    Zeit Temperatur Niederschläge Wind Luftdruck Luftfeuchtigkeit
    00:00 +15°C° 0 mm 1 m/S 624 mmHg 38%
    01:00 +14°C° 0 mm 1 m/S 624 mmHg 39%
    02:00 +14°C° 0 mm 1 m/S 624 mmHg 41%
    03:00 +13°C° 0 mm 1 m/S 623 mmHg 44%
    04:00 +12°C° 0 mm 1 m/S 623 mmHg 46%
    05:00 +12°C° 0 mm 1 m/S 624 mmHg 47%
    06:00 +12°C° 0 mm 1 m/S 624 mmHg 48%
    07:00 +13°C° 0 mm 1 m/S 625 mmHg 50%
    08:00 +16°C° 0 mm 2 m/S 626 mmHg 43%
    09:00 +19°C° 0 mm 3 m/S 626 mmHg 37%
    10:00 +22°C° 0 mm 4 m/S 627 mmHg 31%
    11:00 +25°C° 0 mm 3 m/S 627 mmHg 28%
    12:00 +26°C° 0 mm 3 m/S 627 mmHg 26%
    13:00 +27°C° 0 mm 2 m/S 626 mmHg 23%
    14:00 +27°C° 0 mm 2 m/S 626 mmHg 24%
    15:00 +27°C° 0 mm 2 m/S 625 mmHg 24%
    16:00 +27°C° 0 mm 1 m/S 625 mmHg 24%
    17:00 +24°C° 0 mm 1 m/S 625 mmHg 29%
    18:00 +22°C° 0 mm 1 m/S 624 mmHg 33%
    19:00 +19°C° 0 mm 1 m/S 624 mmHg 37%
    20:00 +18°C° 0 mm 1 m/S 624 mmHg 38%
    21:00 +18°C° 0 mm 1 m/S 624 mmHg 39%
    22:00 +16°C° 0 mm 1 m/S 625 mmHg 39%
    23:00 +16°C° 0 mm 1 m/S 624 mmHg 41%

    23 Juni, Samstag

    Zeit Temperatur Niederschläge Wind Luftdruck Luftfeuchtigkeit
    00:00 +15°C° 0 mm 1 m/S 624 mmHg 42%
    01:00 +15°C° 0 mm 1 m/S 624 mmHg 43%
    02:00 +14°C° 0 mm 1 m/S 623 mmHg 44%
    03:00 +13°C° 0 mm 1 m/S 623 mmHg 45%
    04:00 +13°C° 0 mm 2 m/S 623 mmHg 46%
    05:00 +13°C° 0 mm 2 m/S 623 mmHg 47%
    06:00 +13°C° 0 mm 2 m/S 624 mmHg 48%
    07:00 +13°C° 0 mm 2 m/S 624 mmHg 49%
    08:00 +16°C° 0 mm 2 m/S 625 mmHg 43%
    09:00 +19°C° 0 mm 3 m/S 626 mmHg 37%
    10:00 +22°C° 0 mm 3 m/S 627 mmHg 31%
    11:00 +24°C° 0 mm 3 m/S 627 mmHg 29%
    12:00 +26°C° 0 mm 2 m/S 626 mmHg 26%
    13:00 +27°C° 0 mm 2 m/S 626 mmHg 23%
    14:00 +27°C° 0 mm 2 m/S 625 mmHg 23%
    15:00 +27°C° 0 mm 2 m/S 625 mmHg 23%
    16:00 +27°C° 0 mm 1 m/S 624 mmHg 23%
    17:00 +24°C° 0 mm 1 m/S 624 mmHg 27%
    18:00 +22°C° 0 mm 1 m/S 624 mmHg 31%
    19:00 +19°C° 0 mm 1 m/S 623 mmHg 35%
    20:00 +19°C° 0 mm 1 m/S 624 mmHg 36%
    21:00 +18°C° 0 mm 1 m/S 624 mmHg 36%
    22:00 +18°C° 0 mm 1 m/S 624 mmHg 37%
    23:00 +16°C° 0 mm 1 m/S 623 mmHg 39%

    24 Juni, Sonntag

    Zeit Temperatur Niederschläge Wind Luftdruck Luftfeuchtigkeit
    00:00 +15°C° 0 mm 1 m/S 623 mmHg 41%
    01:00 +14°C° 0 mm 2 m/S 622 mmHg 44%
    02:00 +14°C° 0 mm 2 m/S 622 mmHg 46%
    03:00 +13°C° 0 mm 2 m/S 622 mmHg 48%
    04:00 +12°C° 0 mm 2 m/S 622 mmHg 50%
    05:00 +12°C° 0 mm 1 m/S 622 mmHg 50%
    06:00 +12°C° 0 mm 1 m/S 623 mmHg 50%
    07:00 +12°C° 0 mm 1 m/S 623 mmHg 51%
    08:00 +15°C° 0 mm 2 m/S 624 mmHg 44%
    09:00 +18°C° 0 mm 3 m/S 625 mmHg 37%
    10:00 +21°C° 0 mm 4 m/S 626 mmHg 31%
    11:00 +24°C° 0 mm 3 m/S 626 mmHg 28%
    12:00 +25°C° 0 mm 3 m/S 625 mmHg 26%
    13:00 +27°C° 0 mm 2 m/S 625 mmHg 23%
    14:00 +27°C° 0 mm 2 m/S 625 mmHg 23%
    15:00 +26°C° 0 mm 1 m/S 625 mmHg 23%
    16:00 +26°C° 0 mm 1 m/S 624 mmHg 23%
    17:00 +24°C° 0 mm 1 m/S 624 mmHg 28%
    18:00 +21°C° 0 mm 1 m/S 623 mmHg 32%
    19:00 +19°C° 0 mm 1 m/S 623 mmHg 36%
    20:00 +18°C° 0 mm 1 m/S 623 mmHg 37%
    21:00 +18°C° 0 mm 1 m/S 623 mmHg 38%
    22:00 +16°C° 0 mm 1 m/S 623 mmHg 39%
    23:00 +15°C° 0 mm 1 m/S 623 mmHg 40%
    Mehr zeigen